Weather History for Hastings, NE

Change the Weather History Date:

Monday, September 9, 2013

  Actual Average Record
Temperature  
Mean Temperature 83 °F 68 °F  
Max Temperature 97 °F 80 °F 102 °F (1919)
Min Temperature 68 °F 57 °F 40 °F (1976)
Degree Days  
Heating Degree Days 0 1  
Month to date heating degree days 0 9  
Since 1 July heating degree days 6 15  
Cooling Degree Days 18 5  
Month to date cooling degree days 112 51  
Year to date cooling degree days 1070 1004  
Growing Degree Days 32 (Base 50)    
Moisture  
Dew Point 53 °F    
Average Humidity 41    
Maximum Humidity 63    
Minimum Humidity 19    
Precipitation  
Precipitation 0.00 in 0.10 in 2.10 in (1963)
Month to date precipitation T 0.90  
Year to date precipitation 18.06 21.56  
Snow  
Snow 0.00 in 0.00 in - ()
Month to date snowfall 0.0 0.0  
Since 1 July snowfall 0.0 0.0  
Since 1 September snowfall 0.0 0.0  
Snow Depth 0.00 in    
Sea Level Pressure  
Sea Level Pressure 29.77 in    
Wind  
Wind Speed 10 mph (South)    
Max Wind Speed 20 mph    
Max Gust Speed 30 mph    
Visibility 10 miles    
Events      
T = Trace of Precipitation, MM = Missing Value Source: NWS Daily Summary

Daily Weather History Graph

Daily Weather History Graph

Search for Another Location

Airport:

Trip Planner

Search our weather history database for the weather conditions in past years. The results will help you decide how hot, cold, wet, or windy it might be!

Date:

Astronomy

Sep. 09, 2013 Rise Set
Actual Time 7:08 AM CDT 7:52 PM CDT
Civil Twilight 6:41 AM CDT 8:19 PM CDT
Nautical Twilight 6:08 AM CDT 8:52 PM CDT
Astronomical Twilight 5:34 AM CDT 9:26 PM CDT
Moon 11:33 AM CDT (9/9) 10:08 PM CDT (9/9)
Length of Visible Light 13h 38m
Length of Day
12h 43m
Waxing Crescent, 19% of the Moon is Illuminated
Sep 9
Waxing Crescent
Sep 12
First Quarter
Sep 19
Full
Sep 26
Last Quarter
Oct 4
New

Hourly Weather History & Observations

Time (CDT) Temp. Heat Index Dew Point Humidity Pressure Visibility Wind Dir Wind Speed Gust Speed Precip Events Conditions
12:53 AM 80.1 °F 80.4 °F 57.0 °F 45% 29.78 in 10.0 mi South 9.2 mph - N/A   Clear
1:53 AM 78.1 °F - 57.0 °F 48% 29.78 in 10.0 mi SSW 9.2 mph - N/A   Clear
2:53 AM 75.9 °F - 57.0 °F 52% 29.77 in 10.0 mi SSW 10.4 mph - N/A   Clear
3:53 AM 75.9 °F - 55.9 °F 50% 29.76 in 10.0 mi SSW 8.1 mph - N/A   Clear
4:53 AM 72.0 °F - 57.0 °F 59% 29.77 in 10.0 mi SSW 8.1 mph - N/A   Clear
5:53 AM 71.1 °F - 55.9 °F 59% 29.77 in 10.0 mi South 9.2 mph - N/A   Clear
6:53 AM 68.0 °F - 55.9 °F 65% 29.78 in 10.0 mi South 6.9 mph - N/A   Clear
7:53 AM 69.1 °F - 55.0 °F 61% 29.79 in 10.0 mi South 6.9 mph - N/A   Clear
8:53 AM 73.9 °F - 55.0 °F 52% 29.80 in 10.0 mi SSW 8.1 mph - N/A   Clear
9:53 AM 79.0 °F - 55.0 °F 44% 29.80 in 10.0 mi SSW 9.2 mph 17.3 mph N/A   Clear
10:53 AM 84.0 °F 82.9 °F 55.0 °F 37% 29.80 in 10.0 mi SW 11.5 mph 18.4 mph N/A   Clear
11:53 AM 88.0 °F 85.9 °F 54.0 °F 31% 29.79 in 10.0 mi SSW 13.8 mph 20.7 mph N/A   Clear
12:53 PM 91.9 °F 89.5 °F 54.0 °F 27% 29.77 in 10.0 mi SSW 11.5 mph 19.6 mph N/A   Clear
1:53 PM 95.0 °F - 48.0 °F 20% 29.76 in 10.0 mi SSW 16.1 mph 25.3 mph N/A   Clear
2:53 PM 95.0 °F - 46.0 °F 19% 29.75 in 10.0 mi SSW 15.0 mph 27.6 mph N/A   Clear
3:53 PM 95.0 °F - 46.0 °F 19% 29.74 in 10.0 mi South 12.7 mph 25.3 mph N/A   Clear
4:53 PM 95.0 °F - 46.0 °F 19% 29.74 in 10.0 mi South 15.0 mph 24.2 mph N/A   Clear
5:53 PM 93.0 °F - 45.0 °F 19% 29.74 in 10.0 mi South 12.7 mph 23.0 mph N/A   Clear
6:53 PM 90.0 °F - 46.0 °F 22% 29.75 in 10.0 mi South 10.4 mph 18.4 mph N/A   Clear
7:53 PM 84.9 °F - 50.0 °F 30% 29.77 in 10.0 mi SSE 10.4 mph - N/A   Clear
8:53 PM 82.0 °F - 52.0 °F 35% 29.78 in 10.0 mi South 8.1 mph - N/A   Clear
9:53 PM 80.1 °F 80.0 °F 54.0 °F 40% 29.79 in 10.0 mi South 8.1 mph - N/A   Clear
10:53 PM 78.1 °F - 55.0 °F 45% 29.80 in 10.0 mi South 10.4 mph - N/A   Clear
11:53 PM 75.9 °F - 55.0 °F 48% 29.81 in 10.0 mi South 8.1 mph - N/A   Clear